Starlink 5050

operational
NORAD ID: 53890 Int'l Des: 2022-119 Owner: SPXS Country: US Constellation: starlink
LEOCIRCULAR

关于 Starlink 5050

正在加载描述...

实时位置

正在加载3D地球...

即将过境

高度历史

Altitude vs Time

uPlot chart will show altitude changes over time

两行轨道根数

1 53890U 22119E 25349.59989190 .00000989 00000-0 80233-4 0 9999
2 53890 53.2193 306.3974 0001427 92.6199 267.4957 15.08841040179482
Epoch: Dec 15, 2025 • Age: 28 hours

当前状态

高度 552.0 km
速度 7.59 km/s
星下点 -35.89°S, 99.22°W
发射日期 Sep 24, 2022
运行时间 3.2 years
类型 internet

技术详情

分类 Payload
质量 305.00 kg
干质量 290.00 kg
总质量 305.00 kg
长度 0.20 m
直径 2.80 m
跨度 9.00 m
形状 Box + pan
制造商 SPXS
平台类型 Starlink
阶段状态 In Orbit
所有者/国家 SPXS/US

大型星座

Loading constellations...